AirNav   Everest Fuels
 
 280 users online  

K67 Oswego Municipal Airport
Oswego, Kansas, USA

GOING TO OSWEGO?


FAA INFORMATION EFFECTIVE 28 FEBRUARY 2019

Location

FAA Identifier: K67
Lat/Long: 37-09-33.8000N / 095-02-29.4000W
37-09.563333N / 095-02.490000W
37.1593889 / -95.0415000
(estimated)
Elevation: 832 ft. / 253.6 m (surveyed)
Variation: 05E (1985)
From city: 3 miles E of OSWEGO, KS
Time zone: UTC -6 (UTC -5 during Daylight Saving Time)
Zip code: 66725

Airport Operations

Airport use: Open to the public
Activation date: 08/1961
Control tower: no
ARTCC: KANSAS CITY CENTER
FSS: WICHITA FLIGHT SERVICE STATION
NOTAMs facility: ICT (NOTAM-D service available)
Attendance: UNATNDD
Wind indicator: yes
Segmented circle: no
Beacon: white-green (lighted land airport)
Operates sunset to sunrise.

Airport Communications

CTAF: 122.9

Nearby radio navigation aids

VOR radial/distance  VOR name  Freq  Var
OSWr081/7.8OSWEGO VOR/DME117.6008E
EOSr296/34.7NEOSHO VOR/DME117.3007E
CNUr132/38.4CHANUTE VOR/DME109.2005E

 
NDB name  Hdg/Dist  Freq  Var  ID
COFFEYVILLE076/25.721205ECFV -.-. ..-. ...-

Airport Services

Fuel available: 100LL
SELF SVC FUEL AVBL 24HRS
Parking: tiedowns
Airframe service: NONE
Powerplant service: NONE
Bottled oxygen: NONE
Bulk oxygen: NONE

Runway Information

Runway 17/35

Dimensions: 2500 x 50 ft. / 762 x 15 m
Surface: asphalt, in good condition
Runway edge lights: low intensity
RUNWAY 17  RUNWAY 35
Latitude: 37-09.768857N37-09.356787N
Longitude: 095-02.490013W095-02.490013W
Elevation: 832.0 ft.826.0 ft.
Traffic pattern: leftleft
Runway heading: 175 magnetic, 180 true355 magnetic, 000 true
Markings: basic, in good conditionbasic, in good condition
Obstructions: 23 ft. rr, 660 ft. from runway, 20:1 slope to clearnone

Airport Ownership and Management from official FAA records

Ownership: Publicly-owned
Owner: CITY OF OSWEGO
703 5TH ST
OSWEGO, KS 67356
Phone 620-795-4433
Manager: CALVIN JURGENSEN
PO BOX 210
OSWEGO, KS 67356
Phone (620) 429-0297

Airport Operational Statistics

Aircraft based on the field: 5
Single engine airplanes: 5
    
Aircraft operations: avg 46/month *
73% local general aviation
27% transient general aviation
* for 12-month period ending 02 August 2018

Additional Remarks

PUBLIC PHONE.
WILDLIFE ON & INVOF ARPT.

Instrument Procedures

There are no published instrument procedures at K67.

Some nearby airports with instrument procedures:

KMIO - Miami Regional Airport (17 nm SE)
KPTS - Atkinson Municipal Airport (23 nm NE)
KPPF - Tri-City Airport (24 nm NW)
KCFV - Coffeyville Municipal Airport (26 nm W)
KJLN - Joplin Regional Airport (26 nm E)
 
Loc | Ops | Rwys | IFR | FBO | Links
Com | Nav | Svcs | Stats | Notes

Kansas City Aviation Department
 
Area around K67 (Oswego Municipal Airport)
 
Road maps at: MapQuest Bing Google
 
Aerial photo
No photo
 
Sectional chart

 
Airport distance calculator
Flying to Oswego Municipal Airport? Find the distance to fly.

From to K67

Sunrise and sunset
Times for 22-Mar-2019
 Local
(UTC-5)
 Zulu
(UTC)
Morning civil twilight06:5611:56
Sunrise07:2212:22
Sunset19:3300:33
Evening civil twilight19:5800:58

Current date and time
Zulu (UTC)  22-Mar-2019 07:50:18
Local (UTC-5)  22-Mar-2019 02:50:18
 
METAR
KPTS 
23nm NE 
220735Z AUTO 25005KT 10SM CLR 01/01 A3018 RMK AO2 T00140005
KPPF 
24nm NW 
220652Z AUTO 00000KT 10SM CLR 01/M01 A3020 RMK AO2 SLP227 T00111006
KCFV 
26nm W 
220652Z AUTO 00000KT 10SM CLR 03/01 A3019 RMK AO2 SLP224 T00330006
KJLN 
26nm E 
220653Z AUTO 20004KT 10SM CLR 03/M01 A3019 RMK AO2 SLP225 T00281006
KIDP 
35nm W 
220735Z AUTO 05003KT 10SM CLR 03/00 A3019 RMK AO2 T00341003
KGMJ 
37nm SE 
220735Z AUTO 00000KT 10SM CLR 01/00 A3020 RMK AO2
KCNU 
37nm NW 
220652Z AUTO 27004KT 10SM CLR 02/M01 A3019 RMK AO2 SLP224 T00171006
KEOS 
38nm SE 
SuperAWOS
220715Z AUTO 00000KT 10SM 04/01 A3016
KK88 
46nm N 
220735Z AUTO 00000KT 10SM CLR 01/01 A3020 RMK AO1 T00140013
TAF
KJLN 
26nm E 
220520Z 2206/2306 VRB04KT P6SM SCT250 FM230000 07005KT P6SM BKN250
NOTAMs
Click for the latest NOTAMs
NOTAMs are issued by the DoD/FAA and will open in a separate window not controlled by AirNav.

 

 
 

FBO, Fuel Providers, and Aircraft Ground Support

  
 Business Name 
 
 Contact 
 
 Services / Description 
 
Fuel Prices
 
Comments
  
Oswego Municipal Airport 620-795-4433
620-795-2565
[web site]
[email]
Aviation fuel, Aircraft parking (ramp or tiedown), Hangar leasing / sales

More info about Oswego Municipal Airport
Ascent
100LL
SS $4.70 
 Updated 14-Mar-2019
 
   1 read write
SS=Self service
Update Fuel Prices
 

Would you like to see your business listed on this page?

 If your business provides an interesting product or service to pilots, flight crews, aircraft, or users of the Oswego Municipal Airport, you should consider listing it here.  To start the listing process, click on the button below
 
Add a business
 

Other Pages about Oswego Municipal Airport

Update a link
 
Copyright © AirNav, LLC. All rights reserved. Privacy Policy  Contact